Location: Nelson
(41.2830°S, 173.2830°E)
Time: 12:43:52
(UTC+13:00)

Radarsat Rocket - Pass Details

Date: 01 October 2021
Orbit: 933 x 1492 km, 100.6° (Epoch: 27 October)

Event Time Altitude Azimuth Distance (km) Brightness Sun altitude
Rises 04:17:25 0° 91° (E) 4,627 8.3 -29.6°
Reaches altitude 10° 04:23:14 10° 121° (ESE) 3,608 7.9 -28.7°
Maximum altitude 04:25:16 11° 135° (SE) 3,499 7.8 -28.4°
Drops below altitude 10° 04:27:18 10° 150° (SSE) 3,555 7.7 -28.1°
Sets 04:32:49 0° 181° (S) 4,425 7.8 -27.2°
